Weather reports worldwide

Advertisment
Bari Palese, Italy (16270): temperature & dewpoint: 09.12.2019 19:00:00 - 15.12.2019 19:00:00 (CET)Bari Palese, Italy (16270): wind speed: 09.12.2019 19:00:00 - 15.12.2019 19:00:00 (CET)Bari Palese, Italy (16270): wind direction: 09.12.2019 19:00:00 - 15.12.2019 19:00:00 (CET)Bari Palese, Italy (16270): reduced air pressure: 09.12.2019 19:00:00 - 15.12.2019 19:00:00 (CET)Bari Palese, Italy (16270): visibility: 09.12.2019 19:00:00 - 15.12.2019 19:00:00 (CET)Bari Palese, Italy (16270): precipitation: 09.12.2019 19:00:00 - 15.12.2019 19:00:00 (CET)
Date & Time tt [°C] td [°C] ff [km/h] ff [kn] dd ppp [hPa] vv [km] rr [mm]
15.12.2019 19:00:00 11,1 7,4 11 6 SW 1019,5 11 -
15.12.2019 18:00:00 - - - - - - - -
15.12.2019 17:00:00 - - - - - - - -
15.12.2019 16:00:00 15,2 9,9 2 1 W 1018,3 20 0,0
15.12.2019 15:00:00 - - - - - - - -
15.12.2019 14:00:00 - - - - - - - -
15.12.2019 13:00:00 18,8 2,7 9 5 SSW 1017,3 30 -
15.12.2019 12:00:00 - - - - - - - -
15.12.2019 11:00:00 - - - - - - - -
15.12.2019 10:00:00 14,8 4,4 8 4 SSW 1017,1 30 0,0
15.12.2019 09:00:00 - - - - - - - -
15.12.2019 08:00:00 - - - - - - - -
15.12.2019 07:00:00 5,6 1,7 13 7 SW 1015,8 20 -
15.12.2019 06:00:00 - - - - - - - -
15.12.2019 05:00:00 - - - - - - - -
15.12.2019 04:00:00 5,5 1,6 11 6 SW 1014,5 - 0,0
15.12.2019 03:00:00 - - - - - - - -
15.12.2019 02:00:00 - - - - - - - -
15.12.2019 01:00:00 6,6 1,6 13 7 W 1013,8 20 -
15.12.2019 00:00:00 - - - - - - - -
14.12.2019 23:00:00 - - - - - - - -
14.12.2019 22:00:00 9,7 -2,1 8 4 W 1012,4 30 0,0
14.12.2019 21:00:00 - - - - - - - -
14.12.2019 20:00:00 - - - - - - - -
14.12.2019 19:00:00 9,4 2,0 9 5 W 1009,1 30 -
14.12.2019 18:00:00 - - - - - - - -
14.12.2019 17:00:00 - - - - - - - -
14.12.2019 16:00:00 13,3 5,7 21 11 NW 1005,5 30 0,0
14.12.2019 15:00:00 - - - - - - - -
14.12.2019 14:00:00 - - - - - - - -
14.12.2019 13:00:00 13,2 6,8 24 13 NW 1002,1 20 -
14.12.2019 12:00:00 - - - - - - - -
14.12.2019 11:00:00 - - - - - - - -
14.12.2019 10:00:00 11,2 7,2 24 13 NW 999,1 20 0,0
14.12.2019 09:00:00 - - - - - - - -
14.12.2019 08:00:00 - - - - - - - -
14.12.2019 07:00:00 8,0 4,7 22 12 W 993,7 10 -
14.12.2019 06:00:00 - - - - - - - -
14.12.2019 05:00:00 - - - - - - - -
14.12.2019 04:00:00 9,2 4,9 16 9 W 990,2 - 0,0
14.12.2019 03:00:00 - - - - - - - -
14.12.2019 02:00:00 - - - - - - - -
14.12.2019 01:00:00 9,9 3,9 31 17 WNW 987,1 10 -
14.12.2019 00:00:00 - - - - - - - -
13.12.2019 23:00:00 - - - - - - - -
13.12.2019 22:00:00 11,9 10,1 16 9 SSW 985,6 8 0,0
13.12.2019 21:00:00 - - - - - - - -
13.12.2019 20:00:00 - - - - - - - -
13.12.2019 19:00:00 11,9 9,1 24 13 SSW 987,9 11 -
13.12.2019 18:00:00 - - - - - - - -
13.12.2019 17:00:00 - - - - - - - -
13.12.2019 16:00:00 13,1 6,9 13 7 S 993,0 11 0,0
13.12.2019 15:00:00 - - - - - - - -
13.12.2019 14:00:00 - - - - - - - -
13.12.2019 13:00:00 14,4 4,3 9 5 S 997,0 18 -
13.12.2019 12:00:00 - - - - - - - -
13.12.2019 11:00:00 - - - - - - - -
13.12.2019 10:00:00 12,8 3,4 11 6 SW 1000,8 20 0,0
13.12.2019 09:00:00 - - - - - - - -
13.12.2019 08:00:00 - - - - - - - -
13.12.2019 07:00:00 4,9 1,9 11 6 SW 1001,6 20 -
13.12.2019 06:00:00 - - - - - - - -
13.12.2019 05:00:00 - - - - - - - -
13.12.2019 04:00:00 6,2 2,8 9 5 SW 1001,8 - 0,0
13.12.2019 03:00:00 - - - - - - - -
13.12.2019 02:00:00 - - - - - - - -
13.12.2019 01:00:00 6,6 3,9 9 5 WSW 1001,9 - -
13.12.2019 00:00:00 - - - - - - - -
12.12.2019 23:00:00 - - - - - - - -
12.12.2019 22:00:00 9,3 5,6 8 4 WSW 1002,6 15 0,0
12.12.2019 21:00:00 - - - - - - - -
12.12.2019 20:00:00 - - - - - - - -
12.12.2019 19:00:00 10,9 7,6 5 3 SW 1002,7 15 -
12.12.2019 18:00:00 - - - - - - - -
12.12.2019 17:00:00 - - - - - - - -
12.12.2019 16:00:00 12,8 5,4 5 3 SSW 1002,8 20 0,0
12.12.2019 15:00:00 - - - - - - - -
12.12.2019 14:00:00 - - - - - - - -
12.12.2019 13:00:00 13,9 3,1 15 8 W 1004,0 25 -
12.12.2019 12:00:00 - - - - - - - -
12.12.2019 11:00:00 - - - - - - - -
12.12.2019 10:00:00 11,8 5,8 8 4 SW 1005,7 25 0,0
12.12.2019 09:00:00 - - - - - - - -
12.12.2019 08:00:00 - - - - - - - -
12.12.2019 07:00:00 8,2 6,1 8 4 SW 1005,9 20 -
12.12.2019 06:00:00 - - - - - - - -
12.12.2019 05:00:00 - - - - - - - -
12.12.2019 04:00:00 8,2 5,1 8 4 W 1006,7 15 0,0
12.12.2019 03:00:00 - - - - - - - -
12.12.2019 02:00:00 - - - - - - - -
12.12.2019 01:00:00 8,8 4,6 9 5 W 1007,8 15 -
12.12.2019 00:00:00 - - - - - - - -
11.12.2019 23:00:00 - - - - - - - -
11.12.2019 22:00:00 8,8 4,2 13 7 WNW 1009,0 11 0,0
11.12.2019 21:00:00 - - - - - - - -
11.12.2019 20:00:00 - - - - - - - -
11.12.2019 19:00:00 9,6 5,3 16 9 WNW 1009,9 11 -
11.12.2019 18:00:00 - - - - - - - -
11.12.2019 17:00:00 - - - - - - - -
11.12.2019 16:00:00 11,9 5,7 16 9 N 1009,3 18 0,0
11.12.2019 15:00:00 - - - - - - - -
11.12.2019 14:00:00 - - - - - - - -
11.12.2019 13:00:00 11,1 7,0 24 13 N 1009,9 8 -
11.12.2019 12:00:00 - - - - - - - -
11.12.2019 11:00:00 - - - - - - - -
11.12.2019 10:00:00 12,8 4,5 24 13 N 1011,0 - 0,0
11.12.2019 09:00:00 - - - - - - - -
11.12.2019 08:00:00 - - - - - - - -
11.12.2019 07:00:00 12,6 4,9 26 14 N 1010,2 30 -
11.12.2019 06:00:00 - - - - - - - -
11.12.2019 05:00:00 - - - - - - - -
11.12.2019 04:00:00 - - - - - - - -
11.12.2019 03:00:00 - - - - - - - -
11.12.2019 02:00:00 - - - - - - - -
11.12.2019 01:00:00 13,3 5,3 28 15 NNE 1010,8 30 -
11.12.2019 00:00:00 - - - - - - - -
10.12.2019 23:00:00 - - - - - - - -
10.12.2019 22:00:00 13,3 6,8 31 17 NE 1010,2 15 0,0
10.12.2019 21:00:00 - - - - - - - -
10.12.2019 20:00:00 - - - - - - - -
10.12.2019 19:00:00 11,4 10,1 11 6 WNW 1009,1 15 -
10.12.2019 18:00:00 - - - - - - - -
10.12.2019 17:00:00 - - - - - - - -
10.12.2019 16:00:00 13,0 9,0 13 7 N 1008,4 15 0,0
10.12.2019 15:00:00 - - - - - - - -
10.12.2019 14:00:00 - - - - - - - -
10.12.2019 13:00:00 13,7 7,7 21 11 NNW 1008,4 30 -
10.12.2019 12:00:00 - - - - - - - -
10.12.2019 11:00:00 - - - - - - - -
10.12.2019 10:00:00 13,8 8,2 21 11 NW 1008,3 30 0,0
10.12.2019 09:00:00 - - - - - - - -
10.12.2019 08:00:00 - - - - - - - -
10.12.2019 07:00:00 10,2 7,5 15 8 W 1006,6 20 -
10.12.2019 06:00:00 - - - - - - - -
10.12.2019 05:00:00 - - - - - - - -
10.12.2019 04:00:00 8,0 5,7 11 6 SW 1006,3 - 0,0
10.12.2019 03:00:00 - - - - - - - -
10.12.2019 02:00:00 - - - - - - - -
10.12.2019 01:00:00 8,1 6,8 5 3 W 1006,5 20 -
10.12.2019 00:00:00 - - - - - - - -
09.12.2019 23:00:00 - - - - - - - -
09.12.2019 22:00:00 12,9 6,4 13 7 WSW 1007,1 30 0,0
09.12.2019 21:00:00 - - - - - - - -
09.12.2019 20:00:00 - - - - - - - -
09.12.2019 19:00:00 13,3 9,4 9 5 SW 1008,3 30 -

tt = temperature
td = dewpoint
ff = wind speed
dd = wind direction
ppp = reduced air pressure
vv = visibility
rr = precipitation

Next stations